Simultaneous Nadir Overpasses (SNOs) Predictions

Prediction of SNOs between METOP-A and TERRA Satellite Orbit:

Table of predicted SNOs for the next 14.0 days since TLE Epoch: 10/13/2012
Index Date (METOP-A) Time (METOP-A) METOP-A Lat,Lon Date (TERRA) Time (TERRA) TERRA Lat,Lon Distance(km) Time Diff (sec)
1 10/13/2012 23:02:38 81.33,-118.10 10/13/2012 23:02:51 81.32,-118.17 1.14 13
2 10/13/2012 23:53:18 -81.33, 49.64 10/13/2012 23:52:17 -81.34, 49.77 2.21 61
3 10/16/2012 18:36:59 81.33, -51.64 10/16/2012 18:37:09 81.32, -51.75 2.00 10
4 10/16/2012 19:27:39 -81.33, 116.15 10/16/2012 19:26:35 -81.34, 116.21 1.20 64
5 10/19/2012 14:11:19 81.33, 14.89 10/19/2012 14:11:28 81.32, 14.70 3.29 9
6 10/19/2012 15:01:59 -81.33,-177.29 10/19/2012 15:00:54 -81.34,-177.32 0.96 65
7 10/22/2012 09:45:41 81.33, 81.09 10/22/2012 09:45:50 81.33, 81.18 1.58 9
8 10/22/2012 10:36:21 -81.33,-111.05 10/22/2012 10:35:17 -81.33,-111.19 2.35 64
9 10/25/2012 05:20:02 81.33, 147.74 10/25/2012 05:20:14 81.33, 147.70 0.84 12




NCC Satellite Simultaneous Nadir Overpasses (SNOs) Prediction Service
